Location: Central Coast NSW, Australia
(33.2407°S, 151.4316°E)
Time: 05:52:45
(UTC+10:00)

Hubble Space Telescope - Pass Details

Date: 31 March 2019
Orbit: 537 x 540 km, 28.5° (Epoch: 22 April)

Event Time Altitude Azimuth Distance (km) Brightness Sun altitude
Exits shadow 05:19:00 22° 10° (N) 1,194 2.5 -22.9°
Maximum altitude 05:19:21 23° 18° (NNE) 1,185 2.5 -22.8°
Drops below altitude 10° 05:22:39 10° 70° (ENE) 1,798 4.3 -22.1°
Sets 05:25:16 0° 85° (E) 2,691 5.7 -21.6°
